Location: Chomutov
(50.4500°N, 13.4333°E)
Time: 00:44:56
(UTC+02:00)

FO-29 - Pass Details

Date: 01 October 2021
Orbit: 800 x 1321 km, 98.6° (Epoch: 27 October)

Event Time Altitude Azimuth Distance (km) Brightness Sun altitude
Exits shadow 19:08:40 - 94° (E) 3,778 11.9 -4.7°
Reaches altitude 10° 19:10:26 10° 85° (E) 3,351 11.6 -5.0°
Maximum altitude 19:15:23 19° 45° (NE) 2,740 11.5 -5.8°
Drops below altitude 10° 19:20:19 10° 6° (N) 3,323 12.3 -6.6°
Sets 19:23:54 0° 350° (N) 4,248 13.0 -7.1°
